Location: Kailua
(21.4020°N, 157.7390°W)
Time: 18:07:05
(UTC-10:00)

Daily predictions for brighter satellites

Satellite Brightness Start Highest point End
(mag) Time Altitude Azimuth Time Altitude Azimuth Time Altitude Azimuth
Cosmos 2366 rocket 4.0 18:15:39 10° S 18:21:53 71° E 18:28:03 10° N
SPOT 3 Rocket 4.4 18:18:44 10° SE 18:23:07 29° ENE 18:27:31 10° NNE
GPS 2-05 Rocket1 3.1 18:26:29 10° NW 18:29:47 49° NNE 18:33:07 10° ESE
Cosmos 2058 4.1 18:30:18 10° NNE 18:33:27 21° E 18:36:35 10° SE
Cosmos 1626 3.0 18:32:08 10° NNE 18:35:24 28° E 18:38:38 10° SE
CZ-4 R/B 4.4 18:33:11 10° SSE 18:37:16 69° ENE 18:41:22 10° N
Cosmos 2098 Rocket 4.4 18:35:38 10° ESE 18:37:35 14° E 18:39:46 10° NE
Cosmos 1833 4.4 18:32:56 10° SSW 18:38:40 78° WNW 18:44:21 10° NNE
COSMO-SKYMED 1 3.2 18:36:00 10° N 18:40:16 62° WNW 18:44:32 10° SSW
Cosmos 2056 Rocket 3.8 18:37:17 10° N 18:42:17 43° ENE 18:47:11 10° SE
Meteor 2-1 Rocket 4.2 18:37:26 10° S 18:43:04 70° E 18:48:49 10° NNE
DMSP B5D1-3 4.5 18:38:29 10° NNE 18:43:36 75° ESE 18:48:44 10° S
Cosmos 2219 4.0 18:38:41 10° SSE 18:43:37 30° ESE 18:48:34 10° NE
ATLAS 2A CENTAUR R/B -0.3 18:44:36 10° WSW 18:46:13 80° SSE 18:48:17 16° ENE
Fermi 3.9 18:43:43 10° WSW 18:47:50 66° SSE 18:50:58 17° E
GPS 2-14 Rocket1 3.6 18:44:48 10° W 18:48:24 39° SSW 18:51:57 11° SE
Cosmos 1408 Rocket 4.2 18:44:44 10° NNW 18:49:07 62° W 18:53:31 10° S
Cosmos 2360 Rocket 3.5 18:45:16 10° NNE 18:49:12 19° ENE 18:51:54 14° E
Cosmos 1328 4.1 18:45:54 10° N 18:49:50 71° W 18:53:44 10° S
Cosmos 1980 Rocket 4.1 18:45:31 10° NW 18:50:37 35° WSW 18:55:42 10° SSW
IUS-13 SRM-1 2.0 18:51:30 10° SW 18:53:11 27° SSE 18:53:44 22° ESE
YAOGAN 1 3.2 18:50:37 10° S 18:54:52 59° W 18:59:07 10° NNW
Cosmos 2322 Rocket 2.1 18:50:00 10° N 18:55:34 67° ENE 19:01:08 10° SSE
CZ-4 R/B 3.6 18:55:13 10° SSW 18:58:59 31° W 19:02:44 10° NW
Cosmos 1821 Rocket 4.3 18:53:55 10° SSE 18:59:33 40° E 19:05:14 10° NNE
ALOS 2.4 18:55:48 10° SSE 19:00:17 49° ENE 19:04:47 10° N
GRACE-2 3.7 19:00:22 10° S 19:02:55 80° W 19:05:29 10° N
BREEZE M DEB (TANK) 4.3 18:58:20 10° SW 19:03:18 88° SE 19:22:58 10° NE
Meteor 1-11 4.3 18:58:04 10° N 19:03:50 85° W 19:09:31 10° S
GRACE-1 3.9 19:02:17 10° S 19:04:50 68° W 19:07:24 10° N
Cosmos 1703 3.1 19:03:38 10° N 19:07:31 66° E 19:11:23 10° SSE
Atlas Centaur 2 3.2 19:04:36 10° WNW 19:09:08 32° N 19:12:27 20° NE
FENGYUN 3A 3.6 19:08:13 10° SSE 19:13:33 68° ENE 19:18:54 10° N
Cosmos 1400 Rocket 2.9 19:13:30 10° N 19:17:30 73° W 19:21:25 10° S
Cosmos 1908 3.9 19:14:57 10° SSW 19:18:48 57° W 19:22:39 10° N
Cosmos 1727 Rocket 4.1 19:14:09 10° N 19:20:30 79° W 19:26:48 10° S
USA 267 4.1 19:14:32 10° NNE 19:20:45 49° NW 19:26:59 10° WSW
SEDSat Delta rocket 3.5 19:18:40 10° WNW 19:23:01 58° SSW 19:25:34 26° SE
CZ-4C R/B 1.9 19:18:08 10° SSW 19:23:02 83° WNW 19:28:09 11° NNE
Atlas 2A Centaur Rocket 3.9 19:00:08 10° SW 19:23:06 44° S 19:26:00 28° ESE
H-2A R/B 4.4 19:28:39 21° NNE 19:28:39 21° NNE 19:30:06 10° N
Cosmos 1048 Rocket 4.2 19:25:30 10° SSW 19:30:37 68° WNW 19:35:44 10° N
Cosmos 1726 1.9 19:27:10 10° S 19:30:53 82° E 19:31:56 45° NNE
BREEZE-M R/B 3.3 19:31:08 10° WSW 19:33:19 34° NW 19:33:19 34° NW
Cosmos 1605 Rocket 4.5 19:27:59 10° SSE 19:41:19 - NNE 19:32:31 35° ESE
Iridium 4 Rocket 3.7 19:29:24 10° S 19:34:30 74° W 19:40:04 10° N
Cosmos 2151 4.1 19:33:01 10° NNW 19:37:04 45° W 19:41:06 10° SSW
BREEZE M DEB (TANK) 4.5 19:36:02 10° WNW 19:38:09 18° WSW 19:39:00 15° SSW
ISS -2.9 19:36:03 10° NW 19:38:28 46° NW 19:38:28 46° NW
Cosmos 44 4.4 19:35:33 10° SW 19:39:43 38° WNW 19:43:24 12° N
Cosmos 2221 4.1 19:39:01 10° SSW 19:42:57 35° W 19:46:54 10° NNW
SL-16 R/B 3.9 19:44:09 10° NW 19:49:10 33° WSW 19:54:09 10° SSW
FALCON 9 R/B 1.7 19:51:10 10° WNW 19:54:10 79° SW 19:54:10 79° SW
Hubble Space Telescope 2.0 19:50:21 10° SW 19:53:00 35° SSW 19:53:00 35° SSW
Cosmos 1315 Rocket 4.0 19:54:47 10° NNW 19:58:40 43° W 20:01:16 19° SSW
Meteor 2-10 4.0 19:57:03 10° SSW 20:02:03 72° W 20:02:40 64° NW
Milstar 3 Cent rocket 2.8 19:56:44 10° WNW 20:04:15 50° SSW 20:05:07 46° S
Cosmos 2227 Rocket 3.7 19:59:25 10° S 20:01:34 24° S 20:01:34 24° S
Centaur AC-112 4.4 20:05:02 10° WNW 20:07:31 22° NW 20:07:31 22° NW
ATLAS 3B CENTAUR R/B 4.0 20:04:18 10° W 20:10:38 52° SSW 20:17:46 30° SE
Cosmos 2360 Rocket 3.5 20:28:01 10° NW 20:33:09 37° WSW 20:33:49 35° WSW
Atlas Centaur 2 4.3 20:53:09 10° WNW 20:55:04 22° NW 20:55:04 22° NW
